Terminal Aerodrome Forecast
Issued by NWS Upton, NY

Home | Current Version | Previous Version | Text Only | Print | Product List | Glossary On
Versions: 1 2 3 4 5 6 7 8 9 10 11 12 13 14 15 16 17 18 19 20 21 22 23 24 25 26 27 28 29
000
FTUS41 KOKX 061130
TAFEWR
TAF
KEWR 061130Z 0612/0718 VRB03KT P6SM BKN250
     FM061300 18004KT P6SM SCT080 BKN150
     FM061500 16007KT P6SM BKN080
     FM061800 15009KT P6SM BKN080
     FM062200 14008KT P6SM SCT050 BKN100
     FM070200 14005KT P6SM SCT020 BKN120
     FM070500 16005KT 4SM BR BKN015
     FM070700 18004KT 2SM BR BKN008 PROB30 0709/0712 -SHRA
     FM071200 18007KT 4SM BR SCT008 SCT050 BKN150 PROB30 0712/0714
      -SHRA
     FM071400 20011KT P6SM VCSH BKN050 PROB30 0714/0718 3SM TSRA
      BKN035CB=

USA.gov is the U.S. government's official web portal to all federal, state and local government web resources and services.